User: anonymous   Login
Location: Caltech
(34.1382°N, 118.1253°W)
Time: 01:51:38
(UTC-07:00)
Language:

Iridium 12 - Orbit

View from above orbital plane
View from above orbital plane
View from above satellite
View from above satellite

Ground track
Ground track

The orbit data is extracted from the following two-line orbital elements,

1 24837U 97030B   16241.23223741  .00000126  00000-0  38096-4 0  9990
2 24837  86.3953 112.5927 0002197  83.3541  52.3523 14.34217574  4956
Epoch (UTC): 28 August 2016 05:34:25
Eccentricity: 0.0002197
inclination: 86.3953°
perigee height: 776 km
apogee height: 779 km
right ascension of ascending node: 112.5927°
argument of perigee: 83.3541°
revolutions per day: 14.34217574
mean anomaly at epoch: 52.3523°
orbit number at epoch: 495

The dashed part of the orbit path shows where the satellite is in the earth's shadow,  

DLR